Theta_e
311 311 311 311 311 310 311 310 310 310 310 310 310 310 310 310 310 310 311 312 314 314 314 315 317 316 315 315 315 315 314 314 314 314 314 315 316 315 316 318 318 318 318 317 316 316 316 316 317 317 318 319 320 323 321 318 319 320 321 320 320 321 322 322 322 321 320 320 318 316 316 316 317 315 313 314 313 314 315 315 314 314 314 313 314 313 312 313
311 311 311 311 311 311 311 310 310 310 310 310 310 310 310 310 310 310 310 310 312 314 314 314 315 316 316 315 315 315 314 314 314 315 315 315 315 316 317 318 318 318 318 318 318 316 317 318 317 317 318 320 321 322 323 320 318 321 322 320 321 322 322 321 320 320 319 319 319 318 316 316 317 316 313 313 315 315 314 315 314 314 314 313 314 313 312 312
311 311 311 310 310 311 310 310 310 310 310 310 310 310 310 310 310 310 310 310 310 311 313 314 314 314 315 316 315 315 315 315 316 316 316 316 315 316 317 318 318 318 318 319 319 318 318 318 318 317 318 320 321 321 322 321 319 320 321 321 321 322 321 320 319 318 318 318 318 318 317 316 317 316 314 314 316 316 315 316 315 315 314 313 313 313 312 312
310 311 310 311 310 311 310 310 310 310 310 310 310 310 310 310 310 310 310 310 310 310 311 313 314 314 314 316 316 316 315 316 318 318 316 316 316 316 317 318 319 318 318 319 319 319 319 319 318 318 319 320 321 320 320 320 320 320 319 320 321 320 320 320 318 317 317 317 317 317 316 316 316 316 314 315 316 316 317 317 317 316 315 315 313 313 313 312
310 310 310 311 310 311 311 311 311 310 310 310 310 310 310 310 310 310 310 310 310 310 310 311 313 314 314 315 317 317 315 317 320 319 317 316 316 317 316 317 319 318 318 317 318 319 319 318 317 318 319 320 321 320 320 320 318 319 319 320 321 319 318 318 317 316 315 315 315 317 316 316 316 315 315 315 315 317 318 318 317 317 316 316 314 314 314 312
310 310 310 311 311 311 311 311 311 311 311 311 311 310 310 310 310 310 310 310 310 310 310 310 311 313 313 314 316 317 316 319 320 318 317 316 315 316 316 317 318 318 318 317 318 318 319 318 317 318 319 320 321 320 320 319 317 318 320 320 320 318 318 318 316 315 314 314 315 316 316 315 315 315 315 315 316 317 318 317 317 316 316 315 315 314 313 312
310 310 310 310 311 311 312 312 312 312 311 311 311 311 311 310 311 310 310 310 311 311 310 310 310 310 313 314 315 316 318 319 319 317 317 316 315 316 316 316 317 318 318 317 317 317 319 319 318 319 319 320 320 321 319 318 317 317 319 320 319 317 318 317 315 314 314 314 315 315 314 315 315 315 316 316 316 316 316 316 316 316 315 314 314 313 313 313
310 310 311 311 311 311 312 312 312 312 312 312 312 312 311 311 311 311 311 311 311 311 310 310 310 310 311 313 315 317 319 319 317 317 317 316 315 315 316 316 316 317 317 317 316 317 318 319 319 319 319 320 320 320 318 317 317 317 318 319 318 316 316 316 315 314 314 314 314 314 313 315 315 315 316 316 315 315 316 315 315 315 314 313 313 313 312 312
311 311 311 311 311 311 312 312 312 313 313 313 313 312 312 312 312 311 311 311 311 311 311 311 310 310 310 312 316 319 320 320 316 316 317 316 316 315 315 316 316 316 316 317 316 317 317 319 320 319 319 319 319 319 318 317 318 317 318 318 317 317 316 316 315 314 314 314 314 313 314 315 315 315 315 315 315 315 315 315 315 314 313 313 312 312 312 312
311 311 311 311 311 311 312 312 313 313 313 313 313 313 313 312 312 312 312 311 312 311 311 311 310 311 310 312 317 319 319 318 316 316 316 317 317 316 315 314 315 315 315 315 316 316 317 318 319 318 318 319 318 318 317 316 316 316 316 316 316 316 316 316 315 315 315 314 314 313 314 315 315 313 315 316 316 316 315 315 315 313 312 313 312 311 311 311
311 311 311 311 311 311 311 312 312 313 313 313 313 314 314 313 313 313 312 312 312 311 311 311 311 311 311 312 317 318 317 316 315 316 316 317 317 317 316 314 314 315 315 315 315 316 316 317 317 317 318 318 317 317 316 316 315 314 314 315 315 316 316 316 315 315 314 314 313 313 313 315 314 312 315 316 316 315 315 315 314 313 313 313 312 312 311 312
311 311 311 311 311 311 311 312 312 313 313 313 314 314 314 314 314 314 313 312 312 311 311 311 311 311 311 314 316 316 315 314 314 315 316 317 317 317 315 313 313 314 314 315 315 315 315 315 316 317 318 317 318 317 316 314 314 314 313 314 316 316 316 316 316 314 314 314 313 313 313 314 314 313 315 316 315 315 314 314 314 313 313 313 312 312 311 312
311 311 311 311 311 311 311 312 312 313 314 314 314 315 315 314 314 314 314 313 313 312 311 311 311 310 311 315 316 314 313 313 313 314 315 316 317 316 315 314 313 313 314 314 314 315 315 315 315 316 317 317 318 317 314 313 312 313 314 314 315 316 316 317 317 314 313 314 313 313 313 315 316 315 316 317 316 314 313 314 314 313 313 312 313 312 311 312
312 312 312 312 312 312 312 312 313 314 314 315 315 315 315 315 315 314 314 314 313 313 312 311 311 310 312 315 315 313 312 312 313 314 315 315 316 316 316 315 314 313 313 314 314 314 314 315 315 315 316 316 316 315 314 314 312 314 315 315 315 316 316 317 316 314 313 313 312 313 313 314 316 317 318 317 316 314 314 314 314 314 314 313 313 313 312 313
314 314 314 314 314 314 314 314 314 314 315 315 315 315 315 315 315 314 315 314 314 313 312 311 311 312 314 316 314 313 312 312 312 313 314 315 315 316 316 316 315 314 313 313 314 314 314 314 315 316 315 314 314 314 316 316 315 315 315 315 317 316 317 318 315 314 315 313 312 313 314 315 316 317 317 317 316 315 315 315 315 315 314 314 313 313 313 313
314 315 315 315 315 315 315 315 315 315 315 315 315 315 315 315 314 314 314 314 314 313 312 312 312 312 315 316 315 315 314 313 313 313 314 315 315 315 315 315 314 313 313 313 313 314 314 314 315 316 315 314 315 315 317 317 318 318 316 316 317 317 317 318 315 314 316 313 312 313 314 315 316 317 317 317 316 315 315 315 315 315 315 315 314 312 312 312
311 312 313 314 314 314 315 315 315 315 315 315 315 315 315 314 314 314 314 313 313 312 311 312 313 313 314 316 315 315 315 314 314 314 314 315 315 315 314 313 313 313 313 313 313 314 314 315 315 315 315 315 316 317 317 316 316 318 317 317 318 317 316 316 315 314 314 314 313 313 313 314 315 316 316 316 316 315 315 315 315 315 315 315 314 313 312 311
309 309 309 309 310 311 311 312 314 315 315 315 315 315 315 314 314 313 313 313 312 312 311 313 314 314 315 316 315 315 315 314 315 315 315 315 314 314 313 312 312 312 313 314 314 314 315 316 316 315 316 316 316 316 317 316 316 316 317 316 317 317 316 316 316 314 313 313 313 314 314 314 314 315 316 316 315 315 315 315 315 315 315 315 315 314 313 311
312 311 311 310 310 310 309 309 310 311 313 313 314 314 313 313 313 313 313 312 312 314 315 315 315 315 316 316 314 314 314 314 315 315 315 315 314 314 312 312 312 313 315 315 315 315 316 317 317 316 317 318 317 317 317 318 318 316 317 317 316 316 316 317 317 314 313 313 313 313 314 314 315 315 315 316 316 316 315 315 315 315 315 315 314 314 314 312
314 314 314 313 313 312 312 311 310 310 311 311 311 311 311 313 314 314 314 312 312 314 315 315 315 315 315 314 313 313 312 313 313 313 314 315 314 313 312 312 313 313 315 316 317 317 316 316 318 318 318 319 319 318 318 318 318 317 318 317 316 316 316 318 318 313 312 313 313 314 314 314 314 314 315 316 315 315 315 315 315 315 315 315 315 314 314 313
314 315 315 315 315 314 314 313 312 311 311 311 310 309 310 312 313 314 312 311 312 312 312 312 313 313 313 313 313 312 312 313 313 313 313 313 313 313 313 313 314 314 315 317 317 316 315 316 317 318 318 318 318 318 318 318 317 317 316 316 316 317 316 318 318 312 310 312 313 314 314 314 314 314 315 315 314 314 315 315 316 316 316 316 316 315 315 314
313 313 313 313 314 315 314 314 313 312 312 311 310 310 309 309 310 310 309 310 313 312 311 311 311 311 312 311 311 311 311 313 313 312 312 312 313 313 314 314 313 315 316 316 316 315 316 316 317 317 317 317 316 316 316 316 316 316 316 316 316 317 318 318 317 311 309 310 312 314 313 313 314 314 314 315 315 315 315 315 316 316 316 316 316 316 315 314
310 311 311 311 312 312 312 312 312 312 311 311 310 309 308 308 309 308 308 310 312 312 311 310 310 310 310 311 311 310 311 312 312 313 312 312 312 313 314 314 313 316 317 316 316 316 316 316 316 317 317 316 315 314 314 315 315 316 316 316 316 317 318 317 315 311 310 311 312 313 313 313 314 314 314 315 315 316 316 316 316 316 316 316 316 316 316 313
309 309 309 309 309 310 310 310 310 311 311 311 310 309 309 308 308 308 310 312 313 313 312 311 311 310 311 312 312 311 310 311 312 313 313 312 313 312 314 315 313 314 316 316 316 316 317 316 314 315 316 316 316 314 314 314 315 316 317 317 317 318 318 317 316 314 313 313 312 312 313 314 315 316 316 316 315 315 316 315 315 315 315 315 315 315 315 313
308 308 308 309 309 309 309 308 309 309 310 310 310 309 308 308 309 310 311 312 314 315 313 312 311 311 311 311 311 311 311 312 312 312 312 311 313 313 313 314 313 313 314 315 315 315 316 315 313 315 315 315 316 315 315 316 315 316 318 318 318 318 318 318 318 315 314 315 313 313 314 315 315 316 317 316 314 314 314 314 314 314 314 314 314 314 314 312
311 309 308 308 309 309 309 310 309 308 309 309 310 310 309 310 312 312 311 312 314 314 313 313 312 312 312 312 311 311 312 312 312 311 311 311 312 313 312 313 313 313 315 315 315 315 316 313 312 316 316 316 316 315 316 317 315 315 318 319 318 317 317 317 317 315 314 315 314 313 315 315 315 315 316 316 315 314 315 314 314 315 316 316 315 315 314 312
317 314 312 310 309 308 309 311 309 307 310 311 310 312 311 311 313 312 310 311 314 315 314 313 313 314 314 312 311 312 312 312 311 311 310 311 312 312 312 313 314 313 314 315 315 316 316 313 312 315 316 316 316 315 317 317 315 316 316 316 316 315 316 316 315 315 314 315 315 314 314 315 316 315 316 316 315 315 315 315 315 315 316 316 316 316 315 313
320 319 318 316 314 312 310 310 308 306 308 309 310 311 311 310 309 309 310 312 315 316 315 312 312 313 312 311 311 311 311 311 312 312 310 310 311 311 311 312 313 313 313 314 314 315 317 316 315 314 314 315 316 316 317 317 316 315 312 312 313 314 314 314 314 314 314 314 315 315 315 315 316 316 316 316 314 314 314 314 315 315 316 316 316 317 316 314
322 321 320 320 319 317 315 312 309 307 307 307 309 310 310 309 309 309 310 313 316 315 314 313 312 311 311 311 310 310 309 310 312 311 309 310 310 311 311 311 313 313 313 313 314 316 315 312 313 314 314 316 314 312 313 317 316 312 310 311 312 312 312 312 313 313 313 315 316 316 315 315 316 315 315 315 314 314 314 314 315 316 317 317 317 318 317 314
321 321 321 320 319 318 318 316 312 309 307 307 309 311 310 310 310 310 312 314 315 314 312 312 312 313 312 312 311 311 310 309 309 308 308 310 309 309 310 311 311 312 313 313 314 315 311 307 309 313 314 314 310 306 307 311 312 310 311 312 313 312 312 311 312 312 313 316 317 316 315 315 315 315 315 315 315 315 315 315 315 316 317 317 318 318 316 314
321 320 319 319 320 319 318 317 315 311 307 307 310 310 310 310 309 311 314 314 314 314 313 312 312 313 313 314 315 312 310 310 309 308 309 309 309 309 310 311 312 312 313 313 314 315 312 309 310 312 311 310 310 308 307 307 308 310 312 312 314 314 312 312 312 312 314 317 317 316 317 316 315 315 315 315 315 315 316 315 315 316 316 317 318 317 316 314
322 321 319 318 319 319 319 318 318 315 308 307 310 310 310 311 310 312 313 312 313 314 314 315 314 314 313 315 317 314 312 313 310 309 310 310 310 310 310 312 313 314 315 315 315 316 315 314 313 312 309 309 312 312 308 307 307 310 312 312 314 315 315 316 315 314 316 317 315 315 317 318 316 314 314 315 315 315 315 316 316 316 316 316 317 317 316 314
323 322 321 320 318 319 319 318 318 316 309 307 310 310 310 310 311 314 312 311 316 315 315 318 315 314 315 315 316 315 314 314 311 309 311 312 311 312 312 313 314 316 317 316 316 316 317 317 314 313 311 310 312 313 313 311 308 309 312 313 315 316 317 319 318 317 318 317 314 312 315 316 314 314 315 315 315 316 315 316 316 316 316 316 317 318 316 314
323 323 323 321 319 319 318 317 317 314 308 308 310 310 311 311 312 316 315 313 315 314 314 316 315 315 315 315 317 316 315 315 313 310 312 312 312 312 313 313 314 316 316 314 315 316 317 317 315 315 314 312 312 313 316 315 310 310 313 314 315 315 316 316 316 316 317 316 314 312 313 313 312 313 316 315 315 316 316 315 316 315 315 316 317 317 316 314
322 323 323 322 319 318 318 317 317 314 308 308 311 311 311 312 312 313 314 314 314 314 313 314 315 316 315 316 316 316 316 316 315 312 312 313 313 313 314 314 314 314 314 314 315 315 315 317 317 314 313 312 312 315 316 315 312 311 312 314 315 315 315 315 316 316 314 314 314 313 312 313 312 314 316 315 315 316 316 316 316 316 316 316 316 314 314 314
322 322 322 322 319 319 318 316 317 313 308 309 312 311 310 312 313 312 313 313 313 315 314 313 315 316 315 316 316 315 316 316 315 314 313 314 314 314 315 315 315 313 314 315 316 316 315 317 317 311 310 310 309 312 314 314 314 312 312 314 314 315 316 316 317 316 313 313 314 314 314 314 313 315 316 315 315 315 315 315 315 315 316 316 316 314 313 313
323 323 322 322 320 320 319 317 317 312 308 310 312 312 311 313 314 313 313 312 312 315 314 312 314 314 314 315 316 316 316 314 314 314 315 315 315 315 315 315 316 314 314 314 316 318 316 316 316 312 311 308 304 308 311 310 312 312 312 314 313 313 313 313 315 315 314 315 315 314 315 314 313 315 316 314 314 314 314 314 314 315 316 316 316 315 314 313
324 323 322 322 321 321 319 317 316 311 309 310 312 313 314 312 313 313 312 312 312 314 313 311 314 315 314 313 314 316 315 314 314 313 314 315 315 316 316 315 315 315 314 314 315 318 317 316 316 311 310 307 304 308 310 308 309 309 310 311 311 312 313 312 314 314 314 315 315 314 315 314 314 315 315 314 314 314 314 314 314 315 316 316 315 315 314 313
323 321 319 321 322 321 319 317 314 310 309 310 311 314 314 312 313 313 311 311 311 312 312 311 313 314 314 313 314 317 315 314 315 314 313 315 315 316 316 315 316 315 314 313 314 316 316 316 316 309 306 308 306 308 311 311 308 307 307 309 309 311 312 313 314 314 313 314 314 315 315 315 315 315 315 315 314 314 314 314 315 314 315 315 315 314 313 313
321 318 317 319 320 319 318 315 312 309 309 310 311 313 313 313 313 312 310 311 312 311 311 311 312 312 313 313 313 315 315 315 316 315 313 314 314 315 315 315 316 316 314 313 313 315 315 315 315 309 305 308 309 309 311 313 311 308 308 309 309 309 310 311 312 313 313 313 313 314 314 314 314 314 314 315 315 315 315 315 316 316 315 315 314 314 313 313
319 317 316 318 318 318 316 312 310 309 308 309 311 311 312 312 313 312 311 311 311 311 310 311 311 311 312 313 312 313 314 315 316 315 314 314 313 313 314 314 316 316 314 312 313 314 314 314 315 311 308 309 311 311 312 314 314 312 310 310 311 311 311 311 313 313 313 313 313 314 314 314 314 314 314 314 315 315 315 316 317 317 317 315 314 314 313 313
318 317 316 316 316 317 315 311 309 308 307 309 311 311 311 312 312 312 312 311 310 310 310 309 309 311 311 312 312 312 313 314 315 315 315 315 313 312 314 315 315 315 313 313 313 314 316 316 314 314 313 313 312 311 311 314 314 313 312 312 312 311 312 313 314 314 313 313 313 313 314 314 314 315 315 314 314 314 315 316 316 317 317 315 313 313 313 313
317 317 316 315 315 316 314 310 308 307 307 309 310 311 312 312 313 313 312 312 311 310 309 309 309 309 309 311 311 312 312 312 314 315 315 315 314 314 315 314 315 315 313 314 314 313 316 316 314 313 314 314 313 309 307 309 311 312 312 312 313 312 312 313 313 312 313 314 313 313 314 314 314 315 315 314 314 314 315 315 314 315 316 314 313 313 313 313
317 316 314 314 314 315 314 311 310 308 307 308 309 311 312 312 313 313 313 313 312 311 310 310 310 309 309 312 311 311 312 311 312 313 313 314 313 313 313 313 314 314 313 314 315 313 315 315 314 313 313 314 313 310 308 307 308 310 311 311 313 313 313 314 313 311 312 314 313 313 313 313 313 315 315 314 314 314 314 314 314 315 315 314 313 313 313 313
315 315 313 312 313 313 313 313 313 311 308 308 309 310 311 312 313 313 314 313 313 312 311 311 311 309 310 311 310 310 310 310 310 311 313 314 314 312 312 312 313 314 312 313 313 312 315 316 313 313 313 313 314 312 311 310 307 308 310 311 313 313 313 313 312 312 313 313 313 312 313 312 312 313 313 313 313 313 313 314 313 313 314 314 313 313 313 312
314 315 312 310 311 311 312 312 313 312 311 310 310 310 311 312 313 313 313 313 313 312 312 311 309 308 309 309 309 309 309 309 310 310 310 313 313 311 309 308 310 312 311 310 310 311 315 316 313 312 312 312 313 313 313 312 309 309 310 311 312 313 314 313 312 312 313 313 312 313 313 313 313 312 312 312 312 312 312 313 314 312 311 312 312 312 312 312
313 315 313 310 310 310 310 311 311 312 313 312 311 311 312 311 312 313 313 313 313 313 312 312 310 309 310 310 309 309 309 309 310 309 309 309 309 310 307 306 308 309 308 308 308 310 313 313 312 312 312 311 311 311 311 312 311 311 311 311 311 312 313 314 313 312 312 312 313 313 313 314 313 312 312 312 312 312 312 312 313 313 312 311 311 311 311 311
311 314 314 312 312 311 310 310 310 310 312 312 312 313 313 313 313 314 314 314 314 313 313 314 312 311 311 311 311 311 310 310 310 309 310 309 309 309 308 308 309 308 307 308 308 310 313 312 312 313 312 311 311 310 310 310 311 311 312 312 312 312 313 313 312 312 312 313 312 312 314 314 313 312 312 312 312 312 312 312 313 313 312 312 311 310 310 310
310 312 313 312 312 312 311 310 310 310 310 312 312 313 313 314 314 314 314 314 314 313 314 314 313 312 312 311 312 312 312 313 313 312 310 310 310 310 309 310 310 307 307 310 311 311 311 310 311 311 311 311 311 310 311 310 311 311 312 312 313 313 313 312 312 312 312 312 312 312 313 313 313 312 312 312 312 312 312 312 312 312 312 312 311 310 311 310
308 309 310 310 310 311 311 310 309 309 309 310 311 312 312 313 313 314 314 315 315 314 313 314 314 314 314 312 312 312 312 313 315 315 313 311 311 311 310 312 311 309 309 311 312 311 310 309 310 310 310 311 311 310 311 311 311 311 311 311 312 312 312 312 312 312 312 312 312 312 313 313 312 312 311 311 312 312 312 312 312 312 312 312 311 311 311 311
305 306 307 307 307 308 310 310 310 310 310 310 310 311 311 312 313 313 314 315 315 315 314 313 314 314 314 314 313 313 313 312 313 314 314 314 313 312 312 312 312 311 310 310 310 310 309 309 310 309 310 311 310 310 310 310 310 310 310 310 310 310 311 311 312 312 312 312 312 312 313 312 311 311 311 311 312 311 311 311 311 311 311 311 311 311 311 310
302 302 303 303 304 306 308 309 310 310 310 310 310 310 311 311 312 312 314 315 315 315 315 314 314 314 314 315 314 313 313 312 312 312 313 314 314 312 312 311 311 312 311 309 309 309 309 310 309 310 311 310 310 310 310 310 311 311 310 310 310 310 310 310 311 311 311 312 312 312 312 312 312 312 311 311 311 311 311 311 311 311 311 311 311 311 311 311
Wind_Speed
4 4 4 5 6 6 6 7 7 8 8 8 9 9 10 10 9 9 7 6 7 7 7 6 6 7 8 9 9 9 8 9 9 10 13 12 11 9 8 7 4 3 2 2 3 5 6 7 8 8 7 7 7 7 7 5 5 5 4 5 6 6 4 0 3 3 3 4 2 7 8 9 7 8 11 11 11 14 14 15 14 14 18 20 25 20 15 19
5 5 5 5 6 6 7 7 7 8 8 9 9 10 10 11 11 10 9 7 6 6 7 6 6 6 8 10 10 10 10 10 11 14 15 12 11 11 10 8 5 4 3 2 3 4 6 7 8 9 8 9 8 7 7 5 5 6 5 5 7 6 2 1 4 4 4 6 2 4 7 9 7 6 9 9 10 15 16 16 16 17 18 22 29 26 22 25
6 6 6 6 6 6 7 7 8 8 9 9 10 10 11 11 12 11 10 9 7 6 6 7 7 7 7 9 11 11 11 11 14 18 18 14 12 12 11 9 7 5 4 3 3 4 6 7 7 10 10 10 8 7 7 6 6 7 5 6 6 3 2 2 4 5 5 5 5 5 5 8 9 5 8 8 12 14 15 16 15 18 22 23 29 29 28 29
6 6 6 6 6 7 7 8 8 9 9 9 10 10 11 12 12 12 12 11 10 8 7 7 7 8 7 8 10 11 10 11 15 20 18 16 15 13 12 11 9 7 5 4 3 4 4 5 7 10 9 9 8 6 7 8 6 3 5 7 4 2 4 4 3 4 4 4 7 7 4 7 10 8 9 9 10 12 15 18 18 21 22 22 27 29 29 30
7 7 7 6 6 7 7 7 8 8 9 9 10 10 11 12 12 13 13 12 11 10 8 8 7 8 8 7 8 9 8 6 8 13 15 16 16 14 14 13 11 9 6 5 5 4 4 3 5 8 9 9 7 7 8 10 7 3 8 11 6 3 5 2 2 3 3 4 7 8 6 6 6 9 14 14 12 12 10 11 15 18 17 16 22 25 26 28
9 8 8 8 7 7 7 7 7 8 8 9 9 10 11 11 12 13 13 13 13 12 11 9 8 8 8 8 7 8 9 5 3 4 10 15 16 15 14 14 12 10 8 6 5 4 4 3 6 9 9 9 8 8 6 9 8 6 9 11 8 7 7 3 2 4 4 5 8 9 8 6 6 11 15 18 22 20 13 11 12 13 14 14 18 22 24 26
11 10 10 9 9 8 8 8 8 8 8 8 8 9 10 11 11 12 13 13 13 13 13 12 10 9 8 8 8 9 13 14 12 7 7 12 16 15 15 15 14 12 10 8 5 5 5 5 8 9 9 8 8 9 5 6 9 7 8 8 7 7 9 7 3 7 6 8 10 8 7 8 12 13 13 20 27 26 21 19 21 21 20 18 19 23 25 26
13 12 12 12 11 11 10 10 10 9 9 8 8 9 9 10 11 12 13 14 14 14 14 13 13 10 9 9 8 8 14 19 19 15 11 12 15 15 16 15 14 12 10 9 6 6 6 8 8 6 8 7 4 5 4 4 9 11 10 8 5 5 10 10 7 9 8 9 10 8 10 14 17 13 14 24 27 25 24 22 25 28 27 24 24 26 27 27
15 15 14 14 14 13 13 13 12 11 11 10 10 10 10 11 11 12 13 14 15 15 15 14 14 12 10 8 7 8 13 17 18 16 15 15 16 17 18 16 15 13 11 9 7 6 7 7 7 4 8 7 5 5 3 5 6 7 8 7 6 8 10 10 10 12 11 11 9 9 14 16 15 11 16 29 31 27 25 23 23 25 27 27 27 28 29 30
17 17 17 16 16 16 15 15 14 14 13 12 12 12 12 13 13 13 14 15 16 16 16 16 15 12 10 8 6 7 10 13 13 13 16 17 18 19 19 17 15 12 10 10 8 7 7 8 7 7 9 8 7 6 3 5 4 4 8 9 11 13 13 11 13 14 11 11 12 12 13 14 11 6 13 20 20 20 20 22 22 21 25 26 26 27 28 30
20 19 19 19 18 18 18 17 17 16 15 14 14 14 14 15 15 15 16 16 17 17 17 17 15 11 10 8 9 10 11 12 10 11 13 15 17 19 20 18 15 13 10 9 9 9 9 10 10 9 7 3 4 5 5 8 6 7 8 11 14 16 16 15 14 14 10 8 13 13 11 14 9 7 20 21 13 14 15 18 20 22 25 24 24 26 28 30
22 21 21 21 21 20 20 20 19 18 18 16 16 15 16 16 17 17 17 18 18 19 18 17 14 10 10 10 14 16 17 17 15 13 13 14 16 17 18 18 16 14 12 9 10 12 11 11 10 9 7 5 5 3 4 6 6 7 7 10 14 13 15 18 16 13 12 7 9 8 8 14 12 15 32 29 20 18 15 16 18 22 25 24 24 26 28 30
24 23 23 23 23 23 22 22 22 21 20 19 18 17 17 17 18 17 18 18 19 20 20 17 13 10 9 11 16 18 18 18 18 18 16 14 15 15 17 18 17 16 14 12 12 12 12 11 10 10 10 9 7 5 4 4 4 7 7 7 10 11 12 14 13 11 10 7 10 7 6 10 13 23 30 22 19 20 16 18 20 21 24 25 26 27 30 32
25 25 25 25 25 25 24 24 24 24 23 22 21 20 19 19 19 19 19 19 19 19 20 18 13 10 9 13 17 19 18 18 17 19 18 16 16 15 16 17 17 17 16 15 14 12 12 11 10 10 10 9 7 6 6 5 5 6 5 5 6 9 7 6 10 11 9 7 10 8 7 10 11 17 21 16 18 18 16 19 20 22 23 25 29 31 33 34
27 27 27 27 27 27 27 27 27 27 26 25 24 23 22 21 21 20 20 20 20 20 19 17 13 9 10 15 18 17 16 16 17 18 18 18 16 15 16 16 16 16 15 14 13 12 11 10 9 8 6 6 6 6 7 7 6 6 5 6 7 7 6 6 10 12 9 5 11 11 6 10 13 13 10 16 18 16 17 19 18 21 23 25 29 33 35 36
30 30 30 30 29 29 29 29 29 29 29 28 26 25 25 24 24 23 23 22 21 20 17 15 13 9 8 12 16 16 16 16 17 17 16 18 16 15 15 14 14 14 14 13 12 11 10 8 7 8 5 4 5 5 7 7 7 7 7 8 8 7 8 5 8 12 9 4 11 14 8 9 11 10 5 16 19 16 18 20 21 24 27 26 27 30 35 37
30 30 31 31 31 32 31 31 31 31 31 30 29 28 27 27 27 26 26 24 21 19 15 12 10 8 10 14 15 14 16 16 15 14 14 15 15 15 13 12 12 13 11 10 10 9 8 6 4 6 7 6 6 5 5 7 7 6 7 7 9 11 11 7 4 7 9 6 10 14 12 13 15 15 13 14 17 17 20 24 25 29 31 30 27 26 31 35
27 28 29 30 31 31 31 32 32 32 32 31 31 30 30 30 29 28 27 24 19 13 11 9 7 4 9 13 12 11 14 13 11 12 12 11 13 13 12 11 10 9 8 8 8 8 7 6 3 4 6 7 7 6 6 8 9 9 8 7 9 10 11 12 6 5 11 9 11 13 14 18 19 19 22 23 20 19 22 25 27 33 34 30 27 27 28 32
26 26 27 27 28 29 29 30 31 32 32 32 31 31 31 30 27 26 23 18 12 7 6 7 10 5 5 8 12 13 14 12 9 10 10 11 12 12 12 11 8 9 7 5 7 9 7 5 5 6 7 9 10 11 11 13 13 14 11 8 10 11 11 15 9 6 11 9 11 15 16 18 20 18 19 24 26 25 26 26 27 33 32 26 26 28 26 27
27 28 28 27 28 28 28 28 29 30 30 30 29 28 25 18 14 13 11 13 15 14 14 11 12 14 14 16 19 17 16 15 14 13 12 11 10 11 12 9 7 9 8 7 6 7 6 5 7 10 11 12 12 13 16 16 13 11 10 9 12 13 12 16 11 5 8 6 10 16 17 19 20 19 19 23 26 24 25 26 29 32 29 25 25 26 25 24
27 28 28 28 29 29 28 28 28 28 27 26 25 20 14 10 8 7 7 13 18 20 22 21 20 22 23 22 22 20 17 15 16 18 15 12 12 9 10 11 7 7 10 10 4 4 5 7 12 16 15 12 8 7 12 14 12 10 11 10 11 11 12 15 9 5 7 5 10 14 17 19 18 17 19 22 22 21 24 25 27 30 27 26 26 24 22 19
27 27 27 28 29 29 28 28 28 27 25 24 21 16 13 14 14 13 11 12 17 21 24 24 25 27 28 28 28 26 19 12 15 20 19 16 16 12 11 13 9 7 8 8 4 3 6 10 18 18 9 3 2 4 8 12 12 10 8 7 9 10 11 13 6 5 6 4 8 12 15 17 18 18 20 21 20 22 30 30 26 26 24 26 26 21 17 17
25 25 25 26 27 27 26 26 26 25 23 22 19 16 15 15 14 14 12 9 14 22 25 26 27 29 30 30 30 28 21 16 16 19 22 20 19 16 13 11 11 9 8 10 9 7 8 9 14 12 5 5 6 4 6 9 9 8 7 7 9 9 8 9 3 3 5 7 9 13 13 15 16 18 20 25 26 25 30 29 25 25 25 28 27 17 13 17
21 22 22 23 25 25 23 22 21 21 21 19 17 16 14 12 11 10 9 8 10 14 22 25 24 27 29 26 26 24 22 20 15 15 22 23 19 16 15 13 12 11 9 14 15 13 13 8 1 2 4 7 8 6 7 8 6 8 10 10 11 11 11 11 4 3 7 10 7 9 12 12 12 13 14 16 18 17 20 20 19 24 30 33 29 21 17 18
17 18 18 18 21 20 19 19 16 17 17 15 14 12 10 8 6 5 6 8 8 8 15 19 17 22 26 25 23 18 14 17 18 18 21 24 21 12 10 12 11 11 14 17 15 14 16 7 5 3 4 6 8 7 9 8 7 9 12 14 16 15 14 14 8 7 8 7 2 3 10 9 5 8 8 5 6 8 10 11 13 21 27 27 26 24 21 20
14 15 14 14 15 15 14 12 11 12 11 11 11 8 7 4 2 4 4 6 7 5 6 9 10 12 14 17 19 13 5 10 19 23 19 22 25 14 5 8 9 9 10 11 10 8 8 3 4 6 7 7 8 10 11 10 8 8 5 7 12 13 13 12 9 5 6 7 1 3 8 10 3 6 9 5 6 8 7 7 11 17 19 20 25 24 21 21
13 13 13 12 12 12 9 7 10 10 8 9 9 5 5 4 2 3 3 7 9 6 9 8 8 9 9 10 16 14 2 4 10 15 18 21 23 15 7 7 7 5 3 2 5 4 5 6 4 6 7 7 9 10 10 11 8 5 1 3 2 6 9 8 6 6 6 9 6 4 4 12 10 7 11 11 10 10 10 10 13 16 19 23 27 25 23 23
15 14 15 12 11 10 9 8 10 9 9 10 7 6 6 6 5 3 1 8 4 7 7 6 7 9 9 10 20 13 3 2 4 8 19 22 19 12 10 12 9 7 7 7 8 2 4 6 7 9 7 8 8 4 4 12 9 1 3 3 3 1 3 3 4 6 7 9 8 7 7 9 12 5 11 13 13 12 14 15 15 16 20 22 23 23 24 23
17 17 18 16 13 11 10 9 8 7 10 8 6 8 8 9 5 2 3 7 1 6 4 7 8 7 8 10 15 10 3 2 0 4 14 16 17 10 5 10 10 7 7 11 11 3 3 2 3 8 8 7 4 4 3 6 5 1 4 4 5 2 1 2 4 5 6 9 10 8 10 7 13 4 9 10 9 11 13 13 14 16 20 20 19 21 22 20
19 19 19 19 17 13 11 11 8 7 6 6 9 11 11 9 3 3 8 6 1 3 4 7 7 7 11 9 8 9 4 1 3 7 8 6 12 9 3 3 5 6 6 9 11 7 1 4 1 4 6 2 5 6 6 3 2 4 4 2 2 3 2 3 5 3 5 11 10 12 16 11 11 2 8 7 8 11 10 10 12 13 17 17 16 20 22 20
23 22 21 21 19 15 13 12 10 8 4 9 13 15 11 4 2 8 9 1 3 1 5 6 6 8 13 11 5 7 8 5 5 9 6 3 7 9 4 2 3 4 6 7 9 9 6 5 3 3 3 4 6 4 4 4 1 2 2 2 2 4 3 3 4 3 6 11 5 12 20 17 11 4 6 6 8 13 11 8 10 10 12 15 15 18 21 20
27 26 26 24 22 20 16 13 12 10 6 12 17 16 8 2 6 12 6 5 1 6 7 6 8 8 11 10 5 7 7 6 10 10 7 6 6 8 8 7 6 4 6 6 6 6 7 8 8 4 4 7 6 2 2 2 2 4 4 4 3 4 4 4 5 4 8 10 2 9 13 13 13 11 8 9 8 11 11 9 10 10 12 15 15 17 20 21
30 29 30 30 27 25 21 16 13 11 7 15 18 11 4 5 10 11 7 5 2 3 4 4 8 9 9 8 6 7 5 4 11 11 8 7 6 8 11 11 8 4 5 4 3 4 4 3 9 7 3 11 12 7 5 4 7 9 7 7 6 5 5 6 6 6 9 9 3 6 4 7 9 9 13 18 14 13 13 13 14 15 17 18 13 14 18 21
31 31 34 34 32 30 25 18 13 10 10 18 14 6 5 10 10 5 8 11 5 2 3 3 7 10 9 8 6 8 6 5 10 11 8 8 6 7 10 13 14 7 3 3 4 5 6 5 9 10 4 13 18 13 6 3 7 10 7 6 7 6 6 7 7 8 7 7 2 5 2 5 5 2 8 15 15 16 16 16 18 21 25 21 14 14 17 21
31 32 34 35 34 33 30 23 16 12 15 21 9 3 8 12 8 3 6 9 5 3 3 2 5 8 8 7 5 7 7 5 10 10 8 9 8 8 8 11 15 10 4 5 4 4 8 9 8 7 3 13 15 9 5 4 4 7 5 6 7 6 7 8 9 8 4 7 6 5 4 6 7 7 5 8 10 15 16 16 17 21 26 23 18 19 19 21
30 30 33 36 38 37 33 28 20 16 22 21 6 4 11 12 7 3 3 5 5 6 6 2 4 6 7 7 6 8 6 3 8 7 6 10 10 11 9 7 14 16 11 7 3 3 6 5 6 5 1 7 5 2 5 4 3 5 6 7 4 1 3 7 10 5 0 7 10 6 7 8 10 13 9 12 11 13 14 15 17 20 23 23 22 24 24 24
31 32 35 40 41 39 36 32 24 20 24 17 6 8 11 11 10 8 3 1 2 7 8 5 7 7 8 7 7 11 7 3 8 6 5 7 8 12 13 8 12 18 18 13 5 4 5 4 3 4 2 2 2 3 1 2 1 5 5 4 2 2 1 3 7 4 4 9 10 9 13 12 10 9 6 14 15 14 15 15 17 17 17 18 21 25 28 29
36 36 38 43 44 41 38 35 28 25 21 10 8 13 11 10 15 12 3 3 2 7 9 9 8 8 9 9 8 12 11 6 8 7 5 6 6 10 14 10 11 18 22 18 7 3 2 3 3 2 1 2 3 1 3 3 3 1 1 1 1 2 4 5 6 6 7 9 9 13 17 14 12 8 4 12 16 15 17 17 16 14 12 14 21 26 28 29
39 32 30 40 44 41 39 36 31 26 15 6 9 12 8 9 15 12 5 5 5 8 10 11 10 8 10 11 8 9 13 10 9 8 7 7 5 9 14 10 10 16 21 18 9 5 3 4 5 1 2 3 4 4 5 6 4 0 2 2 1 2 3 4 5 5 7 8 9 13 15 13 9 7 8 11 15 16 17 16 14 14 13 16 22 27 29 29
36 21 15 31 36 33 37 36 30 22 10 5 9 10 8 7 9 10 9 10 8 8 10 11 12 11 11 12 10 7 10 10 10 8 8 8 7 7 12 11 8 11 17 17 12 7 3 4 6 0 1 3 5 7 9 10 9 6 5 6 5 3 1 3 5 6 7 7 7 8 12 13 4 1 6 8 12 15 16 13 11 10 13 18 23 28 30 30
29 13 9 25 25 24 33 30 19 12 5 4 9 10 10 10 9 10 12 12 9 9 9 8 10 12 11 11 11 9 8 8 9 9 7 9 11 7 10 14 10 8 9 9 9 8 4 5 8 4 2 7 8 9 12 13 11 10 9 9 9 9 5 4 8 7 5 6 8 8 11 15 5 4 2 5 6 8 9 9 7 6 10 16 21 25 27 30
18 8 8 19 18 23 33 21 8 7 5 7 11 9 9 10 12 13 14 13 11 9 8 7 9 11 11 12 13 10 8 7 9 10 8 10 13 10 9 17 15 11 10 6 9 13 7 3 6 8 6 7 6 3 3 4 3 4 6 9 9 9 9 9 9 6 5 6 9 10 12 16 9 1 3 4 1 4 6 6 6 6 12 17 20 24 25 27
13 9 10 14 17 27 27 8 2 8 5 7 10 12 14 10 8 10 11 12 11 8 8 8 10 12 11 11 13 10 8 8 9 11 9 7 10 10 7 13 15 11 8 5 5 8 4 2 5 8 6 5 3 2 2 3 0 3 6 8 9 10 11 10 6 4 3 6 9 10 11 14 11 4 6 8 8 9 10 10 11 11 14 19 22 23 22 21
15 14 13 17 25 32 24 6 4 9 8 6 6 14 19 13 10 11 9 10 9 7 9 11 11 12 10 7 7 8 7 7 9 10 9 5 6 7 8 12 13 9 8 6 3 7 5 3 6 6 6 7 5 4 2 0 3 7 8 9 11 12 12 8 5 3 5 13 17 12 9 12 10 4 6 12 13 10 11 15 18 16 15 19 22 22 20 19
11 10 12 25 39 37 20 10 10 9 10 11 10 13 15 11 14 21 18 14 14 11 10 9 6 7 8 3 4 8 8 8 7 6 5 4 3 2 4 10 12 10 10 6 1 7 7 4 6 7 8 8 9 11 5 1 4 6 7 11 12 14 15 10 7 6 10 18 20 13 12 15 13 11 14 19 16 10 11 14 15 16 17 18 20 21 22 23
7 5 5 16 35 36 23 17 13 7 9 13 10 10 14 11 14 24 23 17 17 19 15 9 4 5 7 7 8 10 10 12 10 5 5 6 5 3 4 6 10 11 10 9 4 4 3 2 9 13 14 12 12 16 11 4 5 7 9 13 12 14 17 12 8 11 14 14 13 15 19 19 17 18 23 25 21 17 19 17 11 13 17 19 22 24 25 26
7 4 4 7 16 22 20 17 12 6 9 13 7 7 15 16 11 15 18 15 17 20 14 10 8 9 10 11 11 11 11 13 12 9 11 11 10 8 5 4 7 10 10 7 1 3 1 4 11 16 18 17 16 20 21 19 14 11 11 14 14 14 15 13 15 18 15 10 11 18 23 20 15 17 24 28 25 22 23 21 18 19 19 20 23 24 25 27
9 6 7 10 9 7 10 17 18 13 12 12 8 8 15 17 12 12 13 14 17 17 10 8 13 17 17 15 11 9 9 9 9 9 10 10 11 12 8 5 5 7 5 2 1 2 2 6 9 12 15 15 16 20 23 25 23 17 14 15 16 16 16 19 25 20 12 13 17 18 21 20 15 17 24 26 24 23 26 30 31 30 26 20 15 15 22 26
14 12 10 11 10 6 12 23 24 18 17 14 9 10 15 17 18 15 12 9 10 14 13 11 14 19 22 20 15 11 9 8 10 10 10 13 14 11 8 7 7 5 4 3 2 3 3 5 9 12 14 15 17 19 22 24 22 19 18 17 14 15 20 26 24 15 14 23 25 22 24 23 17 18 24 28 32 33 34 38 37 32 30 25 17 19 30 33
14 14 12 11 10 9 12 16 13 10 14 14 11 11 14 18 20 17 13 12 9 10 14 18 19 20 21 21 19 17 15 16 17 16 14 14 12 9 7 8 7 5 5 4 3 3 5 9 11 11 12 14 19 22 24 22 21 21 21 18 17 22 26 25 18 12 16 23 23 22 23 19 16 20 25 31 37 37 34 33 31 32 37 34 25 27 35 37
17 19 18 14 8 8 10 9 7 7 9 11 11 12 14 18 21 18 16 20 20 14 14 19 23 20 18 20 19 19 20 23 24 24 23 20 15 13 11 9 10 8 4 4 4 4 5 9 9 9 10 12 16 21 21 19 20 22 20 20 24 28 26 21 17 17 19 19 19 20 16 13 15 21 24 26 29 30 30 27 24 33 42 36 27 28 33 33
18 20 19 14 6 5 8 7 7 9 8 8 11 13 14 18 20 18 15 17 24 26 23 22 20 15 14 18 21 26 32 34 34 37 39 34 24 17 13 10 13 12 7 6 6 5 5 6 6 8 9 11 16 21 18 14 14 14 17 26 32 29 24 22 24 26 26 21 17 15 12 12 16 19 21 23 26 27 26 21 21 31 37 32 28 30 31 31
Wind_Direction
337 344 349 356 355 354 355 357 358 359 0 359 0 359 358 360 358 358 355 348 346 344 340 326 300 274 261 262 258 253 251 250 254 253 247 234 229 230 222 217 200 193 204 210 205 198 211 218 222 225 221 227 229 226 233 233 206 206 231 247 253 262 270 253 260 274 309 301 161 165 192 220 221 178 210 230 228 238 241 241 234 231 236 238 244 244 242 249
321 326 333 340 341 343 343 347 349 350 352 352 354 354 354 356 357 357 354 348 337 330 330 325 315 289 270 261 259 260 259 261 266 261 248 233 228 224 216 212 198 196 204 196 192 193 217 228 227 225 218 222 227 227 232 226 204 222 250 255 257 275 315 23 293 279 281 287 253 184 205 224 237 182 189 220 232 226 231 238 228 230 235 237 245 242 239 248
308 314 321 325 329 333 334 338 340 343 346 346 347 347 349 350 352 354 352 350 341 328 318 314 315 306 288 263 256 257 262 274 274 263 247 230 224 219 214 213 203 205 210 202 198 199 224 243 237 222 222 228 218 211 224 217 219 231 240 256 265 298 317 272 261 261 268 276 261 247 216 220 241 203 174 218 245 233 231 234 223 225 229 230 242 242 238 243
300 305 311 317 321 324 327 331 334 338 340 342 343 342 344 344 345 348 349 349 343 336 320 309 306 305 303 275 258 253 264 282 270 259 248 230 223 219 217 217 210 212 214 219 226 218 251 269 238 217 225 236 210 205 221 208 216 211 214 255 299 14 299 265 226 252 259 261 261 257 227 232 239 211 199 227 251 246 240 239 230 229 232 225 231 243 242 241
296 301 306 309 313 318 321 325 328 333 336 338 341 340 341 341 341 342 344 345 342 340 330 317 303 299 303 287 264 248 250 277 266 255 245 228 224 220 219 222 217 218 216 226 238 244 277 279 227 213 228 239 209 213 225 203 206 236 235 253 281 287 276 264 153 238 238 244 257 246 240 240 221 214 222 228 239 245 250 248 235 232 241 233 227 239 244 240
294 297 300 303 307 310 312 316 321 325 329 334 336 338 338 338 339 338 339 340 340 340 336 328 314 300 294 288 272 239 222 247 312 285 239 220 223 222 222 226 222 223 222 228 241 246 262 242 217 215 230 242 222 223 217 189 204 247 250 247 255 250 255 258 173 231 232 233 241 237 244 235 220 238 233 229 235 243 253 259 248 233 238 244 236 239 242 242
292 295 297 300 302 304 307 310 312 315 320 325 329 332 332 333 334 334 334 334 336 337 335 333 327 314 294 282 273 239 224 248 271 280 249 221 224 226 227 230 227 229 227 233 246 248 253 237 230 232 242 253 243 235 201 178 209 238 265 257 245 239 245 251 230 235 232 230 238 243 251 237 235 252 248 238 239 242 249 257 259 253 247 247 245 244 246 248
291 293 295 297 300 302 303 304 306 309 311 314 318 321 322 323 325 327 328 328 330 332 331 331 328 323 302 279 273 251 234 249 261 262 256 235 229 230 233 234 233 235 232 237 241 244 258 256 252 254 256 262 271 248 197 211 223 225 256 269 244 233 244 246 237 236 233 234 240 242 247 245 244 258 264 251 247 245 245 250 256 258 255 248 245 248 249 247
288 290 292 295 297 299 301 302 303 303 304 307 309 311 312 313 316 319 321 322 324 326 328 327 324 321 308 283 269 263 248 255 265 261 251 240 235 236 237 237 238 239 238 242 241 246 263 270 261 262 278 286 292 273 206 235 239 227 259 279 256 247 252 244 237 238 235 233 226 229 243 249 248 258 266 255 253 252 245 244 245 251 254 248 243 244 247 247
285 286 289 291 293 295 297 299 299 300 301 302 304 306 309 309 311 314 316 319 320 322 323 323 322 315 303 283 252 260 263 264 270 260 247 241 239 240 239 237 239 241 243 248 248 252 262 274 270 272 285 284 267 260 216 241 290 310 287 285 269 261 260 243 240 242 236 235 221 224 246 251 237 226 259 255 251 247 235 236 234 234 245 246 242 239 242 247
281 283 286 287 289 291 292 295 295 297 297 298 300 302 306 308 309 311 313 316 316 319 321 320 320 309 294 274 239 251 270 271 274 264 249 242 241 241 239 234 237 242 246 254 255 256 259 270 276 277 279 271 258 251 237 253 285 312 300 289 272 261 255 238 238 236 222 232 218 221 255 254 225 207 249 248 242 240 219 222 224 225 238 240 239 238 238 244
279 281 283 285 287 288 289 291 291 293 294 295 296 298 302 304 305 308 309 313 315 317 319 318 317 305 289 261 243 257 271 273 275 269 254 246 244 243 239 235 238 244 247 253 258 261 264 271 272 266 266 278 284 265 250 256 272 295 290 286 278 267 257 236 230 219 207 211 187 199 266 250 216 220 249 249 238 239 220 217 222 225 238 238 235 234 235 241
278 280 282 283 285 286 287 289 289 291 291 291 293 294 297 297 299 303 304 308 312 315 317 317 312 299 281 259 256 268 275 274 273 266 256 249 245 243 241 240 242 246 250 250 256 263 264 270 266 256 260 268 272 271 281 260 255 283 266 266 280 279 265 230 211 190 195 200 164 177 267 258 222 220 243 247 226 226 219 221 226 229 236 238 237 232 234 239
277 279 280 282 283 284 285 287 288 288 289 290 291 291 292 293 295 298 300 304 307 311 313 310 306 290 267 263 271 275 274 273 268 259 253 248 244 247 246 245 246 247 250 250 254 261 260 267 262 254 254 250 259 276 276 243 216 256 256 243 255 268 268 188 171 168 183 191 167 183 252 271 261 235 234 226 214 217 220 227 228 232 234 235 239 235 234 238
276 277 279 280 281 283 284 286 287 287 288 288 288 290 292 291 292 295 297 300 304 307 306 302 297 281 264 270 276 277 274 269 262 256 251 245 245 250 248 247 248 246 247 248 250 255 257 262 253 251 251 232 246 268 267 252 224 226 244 255 240 242 251 187 175 187 196 180 176 193 243 260 268 275 240 202 209 221 232 243 237 237 239 234 236 238 238 240
273 275 277 278 279 281 282 284 285 286 287 287 288 289 291 292 293 295 297 299 302 302 298 294 283 267 263 272 272 275 274 264 260 258 249 243 243 247 248 246 245 244 244 244 247 250 252 250 242 250 249 230 239 248 265 270 252 224 225 260 259 251 262 231 180 198 210 163 181 207 250 263 260 287 244 188 207 228 243 256 254 252 251 242 236 236 240 240
271 273 274 276 277 279 280 281 282 284 285 286 288 289 291 293 293 294 295 298 299 295 288 279 271 259 255 264 268 271 272 267 264 257 247 245 241 239 241 239 239 241 240 243 246 241 238 231 234 249 234 231 242 240 259 265 265 249 219 245 262 262 268 258 203 200 203 192 207 217 235 255 260 273 268 227 218 228 245 258 263 263 258 252 245 238 237 239
275 274 274 274 276 277 278 279 280 281 282 284 287 288 290 291 292 294 293 292 290 285 278 254 231 250 250 248 255 264 273 275 267 255 247 239 234 230 228 229 233 233 230 241 237 216 215 213 221 261 239 227 226 219 231 242 264 283 266 262 273 269 263 262 266 170 179 203 230 229 233 249 257 263 268 264 252 244 250 259 265 266 263 260 253 244 236 235
279 278 278 279 278 278 278 278 278 278 280 281 283 286 289 291 292 290 286 279 261 249 271 220 193 231 271 255 265 274 277 277 270 256 245 235 230 224 221 223 221 218 219 221 206 194 195 202 220 249 242 226 218 212 222 241 263 284 288 286 284 282 269 269 277 163 180 214 232 237 246 254 260 262 263 266 267 264 264 266 265 265 267 265 257 251 240 231
278 280 281 282 281 281 281 280 278 278 279 279 281 286 289 289 289 287 271 247 237 243 261 240 218 249 271 274 276 276 270 268 268 257 246 235 221 214 215 211 205 215 227 227 202 180 192 223 233 237 240 239 236 227 231 249 269 283 285 280 273 275 271 272 277 175 183 230 245 248 255 258 262 265 264 266 268 269 270 267 264 265 268 266 259 254 245 234
278 279 280 281 281 282 283 282 280 280 281 281 283 287 283 267 263 277 268 257 256 256 258 254 249 254 260 263 264 264 261 265 264 251 245 229 207 203 200 193 202 222 223 223 202 152 193 228 238 242 250 258 266 258 249 256 267 268 266 272 271 266 266 273 274 162 163 220 258 263 265 264 262 263 264 263 263 263 263 262 264 268 270 268 263 257 249 235
280 280 281 281 280 280 281 282 281 282 282 282 283 282 271 264 263 266 274 280 270 261 258 256 253 253 257 257 257 258 254 253 253 243 238 220 202 204 191 185 213 227 198 191 183 189 214 237 246 247 252 261 277 277 262 258 259 258 253 259 264 263 271 274 259 146 157 216 266 276 276 273 269 264 261 256 253 252 254 258 264 268 270 268 265 261 246 223
283 283 283 282 280 281 282 282 283 283 282 281 280 277 270 270 268 266 270 276 272 264 259 257 254 254 256 255 255 252 241 239 243 238 236 216 196 203 200 193 222 225 187 192 210 215 222 240 251 248 223 232 247 229 238 250 246 240 237 244 254 258 271 271 243 143 201 226 265 287 284 275 267 256 250 248 245 246 252 258 260 259 261 263 263 262 235 210
289 287 284 283 282 283 284 285 285 284 283 280 278 273 270 271 268 274 277 267 266 261 258 256 250 249 249 249 251 243 231 234 233 232 231 211 186 196 209 211 226 230 214 216 220 226 239 242 197 158 182 231 243 210 213 236 238 229 226 235 250 253 257 264 296 345 269 245 251 292 288 270 259 247 239 238 237 240 247 253 255 253 255 260 262 259 236 213
297 294 292 289 287 288 290 290 288 284 283 281 277 269 268 268 260 283 297 271 251 234 250 250 239 243 243 241 243 230 225 236 230 231 224 202 186 182 203 211 219 233 229 225 227 236 246 230 126 161 194 206 228 229 217 219 245 241 222 228 244 257 266 273 307 346 304 274 197 342 304 277 230 230 231 195 198 220 231 237 246 251 253 256 259 256 240 223
301 299 301 299 297 301 300 297 292 286 285 279 272 262 256 245 252 310 320 279 253 195 202 216 213 227 227 229 223 201 217 243 229 230 218 198 193 184 191 200 205 242 238 227 234 245 242 179 131 219 220 201 225 248 230 208 239 251 228 240 248 259 270 277 296 307 283 283 265 56 311 286 241 223 236 223 212 206 197 216 236 245 247 250 256 254 243 233
305 302 305 305 310 316 312 302 294 287 278 272 262 231 225 198 149 356 346 280 258 164 145 172 182 185 189 202 185 170 221 222 204 216 202 195 196 194 219 201 190 234 206 196 247 230 191 172 172 213 218 218 226 248 227 197 223 248 38 358 261 251 262 262 274 261 261 290 280 177 238 276 274 234 223 231 234 219 206 220 233 240 242 246 253 256 249 243
305 304 304 303 312 320 319 313 305 286 262 263 246 203 192 155 127 74 290 275 260 125 136 165 167 183 183 173 173 174 336 127 161 195 187 191 192 191 230 226 227 231 175 189 235 215 149 182 193 185 194 223 223 257 206 189 214 260 70 36 67 136 254 230 250 260 272 291 275 200 181 263 282 234 196 210 222 227 225 230 240 246 245 242 243 250 253 247
299 300 300 300 308 314 315 318 318 293 270 255 217 192 164 146 134 69 248 257 199 115 137 153 160 183 160 153 183 205 337 51 119 165 174 190 191 186 250 241 250 258 197 213 240 285 63 147 200 182 194 225 200 32 12 198 210 132 111 84 77 100 141 183 245 273 281 274 261 211 169 232 283 253 170 191 208 221 227 231 239 243 246 244 235 239 246 243
284 289 292 296 301 302 308 316 314 300 273 215 188 166 143 143 157 241 233 241 306 89 114 148 164 159 150 154 199 214 221 232 95 134 157 188 193 201 290 259 254 271 237 242 260 272 120 95 44 211 213 210 99 63 16 15 113 130 139 118 122 203 192 212 241 263 277 265 248 203 180 206 274 263 147 178 198 201 211 222 230 236 244 243 229 227 233 236
277 278 280 282 287 289 297 305 302 301 251 193 171 152 148 152 207 236 232 267 348 161 129 164 170 145 165 182 195 187 197 212 149 155 175 162 183 204 222 197 200 244 251 250 255 248 208 169 189 206 173 116 103 91 47 47 100 167 171 215 246 233 207 219 224 171 245 264 231 182 186 199 235 230 155 190 199 192 194 213 234 244 248 242 227 224 231 232
277 275 274 272 274 274 275 281 289 297 254 190 165 157 169 215 226 235 227 67 27 193 157 172 176 170 189 202 212 177 180 202 179 181 195 172 184 199 201 201 174 199 246 228 226 232 216 206 191 154 139 170 171 149 114 103 184 206 195 203 247 258 241 239 225 193 232 255 195 164 191 207 233 248 241 249 235 202 198 212 241 255 252 246 234 229 235 230
273 273 270 267 266 265 265 270 277 286 243 182 169 172 195 238 232 227 197 167 208 175 142 153 168 175 182 195 213 178 179 207 176 185 200 184 205 211 210 218 205 229 258 213 218 220 225 218 173 163 176 187 187 194 207 191 181 193 189 187 209 239 258 259 246 239 246 252 207 142 184 239 257 259 236 240 240 217 212 217 231 244 247 247 236 226 234 227
268 268 264 261 260 260 261 260 259 270 216 178 177 193 203 234 238 197 188 204 204 117 117 113 153 173 189 204 195 168 195 216 167 178 195 181 210 222 215 219 215 231 269 233 262 222 247 273 173 171 169 170 187 211 214 136 171 195 192 195 215 226 245 259 255 257 272 288 260 145 172 255 279 298 199 221 231 218 217 221 224 236 242 242 232 223 231 224
264 265 263 260 253 251 253 248 245 252 199 175 177 221 207 233 242 202 214 208 179 148 134 100 156 180 211 221 198 190 219 219 169 173 194 192 208 213 206 210 204 201 189 217 247 195 244 263 165 142 124 159 182 212 172 116 178 194 180 204 230 231 227 248 269 273 306 316 280 200 222 256 274 285 213 193 221 211 211 223 228 237 240 236 231 232 235 227
261 261 261 257 248 246 248 243 239 229 192 174 166 222 221 239 244 241 235 193 183 163 135 156 196 198 227 215 204 212 215 204 179 180 205 208 224 224 213 204 191 190 189 193 216 194 238 267 136 116 48 161 177 220 168 183 201 159 177 203 211 291 232 246 271 286 164 276 272 243 257 267 273 276 226 181 204 207 202 220 230 237 238 232 230 234 238 236
256 255 253 251 248 246 244 239 233 213 192 181 182 214 226 243 246 258 262 167 194 158 151 217 208 196 222 215 207 199 178 177 189 190 208 199 223 222 210 213 190 188 200 201 217 237 240 279 171 165 235 167 32 357 166 261 252 142 186 204 112 50 329 250 266 275 246 260 271 266 270 273 275 280 201 175 198 204 201 219 230 233 233 230 229 234 241 243
257 253 249 251 252 248 240 232 222 202 188 188 220 227 232 236 243 252 229 132 165 172 195 233 209 189 215 230 223 182 166 183 181 183 217 202 213 196 184 204 193 189 207 208 219 265 218 261 230 171 293 124 104 244 198 229 243 165 298 286 90 211 207 204 230 250 256 257 268 274 276 272 260 266 217 187 195 199 206 218 225 224 222 227 231 235 243 246
257 247 243 250 252 247 236 223 206 189 178 188 220 230 248 246 246 256 238 205 212 205 220 238 231 221 221 234 239 173 169 189 175 176 212 205 211 182 167 186 195 197 205 196 203 242 187 227 245 27 8 127 141 223 202 184 196 170 318 261 198 246 223 210 215 228 244 248 265 278 281 276 256 254 248 210 192 198 210 216 219 220 221 224 228 235 242 243
253 240 241 247 246 241 226 206 187 178 175 202 216 233 268 270 263 270 263 247 241 237 242 246 242 241 235 234 241 209 191 200 190 195 209 196 209 197 171 179 192 201 202 192 201 224 165 212 236 6 33 197 194 207 196 188 181 176 220 217 194 199 253 287 246 232 237 244 255 264 271 274 263 172 262 229 192 202 213 215 215 213 217 223 228 235 241 242
252 237 245 240 238 227 205 186 174 178 180 220 225 240 257 266 276 278 272 268 266 263 267 272 257 252 253 245 242 231 214 212 208 213 216 204 220 226 178 183 189 167 175 192 209 212 186 205 223 210 189 218 220 205 200 202 189 180 195 199 195 189 183 238 240 226 218 231 243 246 258 263 249 88 302 236 190 216 227 217 209 204 219 227 232 239 245 246
256 243 246 231 222 203 189 176 176 186 184 221 221 237 255 258 267 269 269 271 269 267 274 284 267 258 257 253 250 239 216 214 214 217 224 217 225 230 175 181 191 163 153 190 209 205 195 171 222 231 225 227 230 208 219 239 214 209 211 203 202 191 187 214 227 223 210 215 236 243 252 260 257 193 269 254 250 291 266 220 208 219 224 228 237 246 249 248
252 253 244 228 220 201 186 171 220 191 206 242 227 243 250 249 265 267 261 255 249 249 253 256 256 253 252 252 254 246 222 218 216 219 234 233 232 241 204 191 198 177 170 207 204 191 170 99 222 246 271 275 266 101 43 6 253 236 235 215 208 203 205 219 232 244 232 216 229 238 244 259 265 237 238 269 282 274 257 239 240 243 232 234 244 244 240 242
255 255 231 213 210 200 188 180 210 205 228 246 241 245 243 245 253 251 249 242 234 239 247 246 249 249 247 251 255 248 240 238 231 231 241 240 235 254 252 231 221 194 191 215 174 162 171 186 206 232 263 266 265 238 223 313 215 227 234 221 219 220 218 230 251 260 252 239 237 244 248 254 262 238 231 262 265 246 235 241 246 249 241 236 238 234 232 240
262 251 212 197 196 195 200 208 201 206 220 224 235 238 237 244 241 238 241 242 235 237 245 250 261 258 250 259 261 248 248 255 255 254 262 268 273 313 293 260 241 215 218 262 324 169 183 190 190 216 238 232 240 247 244 111 190 223 240 226 220 221 219 227 241 231 239 241 238 243 254 256 267 277 275 274 269 250 247 249 241 239 236 230 228 229 234 242
257 236 194 191 195 204 226 230 212 204 206 216 230 230 231 241 240 238 240 241 239 237 242 254 282 281 255 246 252 250 246 253 263 288 297 280 284 351 355 289 261 247 262 313 346 172 188 225 205 223 239 234 241 254 267 282 206 198 225 227 218 219 220 223 233 232 238 246 242 242 250 258 267 275 278 278 276 275 275 274 256 237 232 227 230 236 240 245
251 216 172 184 201 217 237 238 228 217 202 208 204 204 224 229 234 237 230 228 233 230 237 250 239 241 241 233 242 246 238 244 250 253 260 264 267 278 292 286 264 264 281 306 280 171 270 252 225 234 241 240 249 258 265 271 256 219 213 221 218 218 217 218 229 234 241 255 254 247 251 259 263 266 270 273 277 279 279 277 275 269 258 243 239 241 243 245
247 250 214 204 205 208 228 233 236 236 222 214 203 209 227 226 224 226 218 223 230 220 219 240 226 227 232 227 230 234 226 238 244 234 242 255 255 255 256 244 231 238 255 285 189 164 216 241 239 251 256 256 263 265 265 269 267 254 239 234 229 220 214 222 232 234 232 245 252 253 257 262 262 262 266 272 277 277 276 278 280 282 278 264 247 248 255 255
247 264 263 241 227 205 216 223 227 231 227 224 223 224 231 231 229 226 212 213 229 214 211 228 225 222 227 224 224 224 210 217 235 226 219 229 235 237 240 241 232 203 175 190 202 169 194 247 251 258 267 266 264 264 263 264 270 271 264 262 263 251 237 237 241 234 224 240 250 255 259 262 264 266 268 272 273 273 277 279 280 282 280 272 267 274 277 274
249 265 284 281 261 254 251 239 232 239 231 227 232 226 228 234 234 232 218 206 215 207 205 224 233 227 225 223 222 225 218 217 228 226 213 215 220 218 223 227 224 201 164 176 209 175 201 241 246 251 262 258 250 253 254 256 263 267 268 277 283 273 261 255 255 245 233 242 250 252 257 263 265 264 264 266 268 271 275 275 277 280 278 276 279 279 277 276
262 272 282 291 280 257 262 248 227 241 233 223 230 230 231 235 233 238 235 221 222 217 199 215 229 229 230 229 225 228 226 222 227 230 227 228 224 217 217 207 201 204 182 182 209 192 206 233 235 237 248 243 240 243 244 249 260 265 271 271 261 257 260 261 260 254 246 249 254 254 255 253 251 256 259 262 266 268 268 270 273 274 274 277 282 276 271 272
276 284 284 291 292 248 260 256 227 237 235 220 226 226 231 238 237 243 248 234 233 236 229 224 227 228 232 231 228 231 229 226 229 233 236 243 244 236 231 213 198 199 193 198 211 194 195 217 212 217 237 239 236 241 244 250 259 257 250 247 244 247 255 258 258 256 252 252 254 252 245 240 247 255 260 264 265 262 260 262 265 268 272 277 277 272 271 273